DW1232 Weather Reports


Display with metric or nautical units.
time (UTC)temp
F
wind
direction
speed
MPH
gust
MPH
rain 1hr
in
rain 24hr
in
rain mn
in
humidity
%
barometer
mb
20260507001919 62 0 0.0 4.0 0.00 0.04 0.04 74 1011.4
20260507000857 62 0 0.0 5.0 0.00 0.04 0.04 74 1011.3
20260506234759 63 335 2.0 6.0 0.00 0.04 0.04 71 1011.2
20260506232655 63 53 2.0 6.0 0.00 0.04 0.04 71 1010.9
20260506231644 63 332 2.0 6.0 0.00 0.04 0.04 73 1010.8
20260506230701 62 5 2.0 5.0 0.00 0.04 0.04 73 1010.8
20260506225629 61 39 2.0 6.0 0.00 0.04 0.04 75 1010.7
20260506224647 61 37 1.0 6.0 0.00 0.04 0.04 74 1010.5
20260506223703 61 22 2.0 7.0 0.00 0.04 0.04 74 1010.6
20260506222632 61 41 2.0 7.0 0.00 0.04 0.04 75 1010.5
20260506221615 60 341 2.0 7.0 0.00 0.04 0.04 75 1010.6
20260506220633 61 32 2.0 8.0 0.00 0.04 0.04 74 1010.3
20260506215600 61 0 2.0 8.0 0.00 0.04 0.04 76 1010.1
20260506214616 60 36 2.0 5.0 0.00 0.04 0.04 78 1010.3
20260506213608 60 0 2.0 6.0 0.00 0.04 0.04 76 1010.4
20260506212542 59 38 2.0 6.0 0.00 0.04 0.04 76 1010.4
20260506211548 59 5 2.0 6.0 0.00 0.04 0.04 77 1010.7
20260506210549 59 59 2.0 6.0 0.00 0.04 0.04 77 1010.8
20260506205529 58 334 3.0 6.0 0.00 0.04 0.04 79 1010.8
20260506204548 57 10 2.0 6.0 0.00 0.04 0.04 80 1010.8
20260506203516 57 85 1.0 5.0 0.00 0.04 0.04 81 1010.8
20260506202457 56 49 2.0 6.0 0.00 0.04 0.04 81 1010.8
20260506201427 56 333 2.0 6.0 0.00 0.04 0.04 82 1011.1
20260506193022 55 49 3.0 7.0 0.00 0.04 0.04 83 1011.4
20260506190920 53 342 2.0 9.0 0.00 0.04 0.04 86 1011.8
20260506185941 52 339 3.0 8.0 0.00 0.04 0.04 87 1011.9
20260506184946 52 313 2.0 6.0 0.00 0.04 0.04 87 1012.0
20260506182834 51 74 3.0 9.0 0.00 0.04 0.04 89 1011.9
20260506180747 50 314 3.0 8.0 0.00 0.04 0.04 89 1011.8
20260506175717 50 316 3.0 8.0 0.00 0.04 0.04 90 1011.9
20260506174700 50 350 4.0 7.0 0.00 0.04 0.04 91 1011.5
20260506173629 49 340 3.0 8.0 0.00 0.04 0.04 92 1011.4
20260506172631 49 351 3.0 10.0 0.00 0.04 0.04 92 1011.7
20260506170501 48 324 3.0 9.0 0.00 0.04 0.04 92 1011.8
20260506165431 48 49 4.0 9.0 0.00 0.04 0.04 92 1011.3
20260506164444 48 11 2.0 11.0 0.00 0.04 0.04 92 1011.3
20260506163500 48 5 5.0 11.0 0.00 0.04 0.04 93 1011.1
20260506162443 48 317 3.0 10.0 0.00 0.04 0.04 93 1011.2
20260506161425 48 348 3.0 10.0 0.00 0.04 0.04 93 1011.2
20260506160443 48 22 3.0 10.0 0.00 0.04 0.04 92 1010.9
20260506154247 47 49 3.0 10.0 0.00 0.04 0.04 92 1010.6
20260506152123 47 51 4.0 13.0 0.00 0.04 0.04 93 1010.5
20260506151138 47 46 4.0 13.0 0.00 0.04 0.04 92 1009.9
20260506150107 48 17 5.0 14.0 0.00 0.04 0.04 93 1009.6
20260506145053 48 338 6.0 14.0 0.00 0.04 0.04 95 1009.0
20260506144051 46 34 4.0 12.0 0.00 0.04 0.04 94 1008.6
20260506143106 46 59 4.0 12.0 0.06 0.04 0.04 93 1010.1
20260506142042 46 344 4.0 10.0 0.12 0.03 0.04 93 1010.3
20260506141105 46 30 3.0 7.0 0.05 0.02 0.02 92 1010.3
20260506140058 47 350 2.0 6.0 0.00 0.01 0.01 92 1010.8
20260506135030 47 44 3.0 9.0 0.00 0.00 0.00 92 1011.0
20260506134007 47 5 3.0 9.0 0.00 0.00 0.00 92 1011.0
20260506133015 47 11 3.0 11.0 0.00 0.00 0.00 91 1010.3
20260506125714 48 26 3.0 12.0 0.00 0.00 0.00 89 1009.3
20260506124710 48 0 4.0 12.0 0.00 0.00 0.00 89 1009.5
20260506123647 48 349 4.0 10.0 0.00 0.00 0.00 89 1009.2
20260506122652 48 0 3.0 12.0 0.00 0.00 0.00 88 1009.1
20260506121633 48 34 3.0 12.0 0.00 0.00 0.00 88 1008.3
20260506120648 48 11 4.0 8.0 0.00 0.00 0.00 87 1008.1
20260506115626 49 344 4.0 12.0 0.00 0.00 0.00 87 1007.9
20260506114602 49 346 3.0 12.0 0.00 0.00 0.00 87 1007.7
20260506113548 49 44 4.0 11.0 0.00 0.00 0.00 87 1007.6
20260506112606 49 333 3.0 9.0 0.00 0.00 0.00 88 1007.7
20260506111621 49 32 4.0 9.0 0.00 0.00 0.00 87 1007.8
20260506110559 50 344 2.0 9.0 0.00 0.00 0.00 87 1007.9
20260506104429 50 5 3.0 7.0 0.00 0.00 0.00 87 1007.7
20260506103450 50 341 3.0 9.0 0.00 0.00 0.00 87 1007.4
20260506102453 50 339 3.0 9.0 0.00 0.00 0.00 87 1007.0
20260506101501 51 14 2.0 6.0 0.00 0.00 0.00 87 1006.8
20260506100434 51 38 3.0 10.0 0.00 0.00 0.00 88 1006.6
20260506095442 51 57 3.0 10.0 0.00 0.00 0.00 87 1006.7
20260506094451 51 17 3.0 8.0 0.00 0.00 0.00 87 1006.6
20260506093449 51 5 3.0 8.0 0.00 0.00 0.00 87 1006.7
20260506092433 52 344 3.0 8.0 0.00 0.00 0.00 87 1006.4
20260506091455 52 32 3.0 8.0 0.00 0.00 0.00 87 1006.3
20260506090432 52 38 3.0 8.0 0.00 0.00 0.00 87 1006.0
20260506085423 52 30 4.0 9.0 0.00 0.00 0.00 87 1006.0
20260506084426 52 0 4.0 10.0 0.00 0.00 0.00 86 1005.9
20260506083443 53 19 3.0 10.0 0.00 0.00 0.00 86 1006.0
20260506082455 53 51 3.0 10.0 0.00 0.00 0.00 86 1006.0
20260506081504 53 344 4.0 10.0 0.00 0.00 0.00 86 1005.8
20260506080504 53 78 3.0 10.0 0.00 0.00 0.00 86 1005.8
20260506072247 54 31 3.0 10.0 0.00 0.00 0.00 85 1005.6
20260506071219 55 0 3.0 10.0 0.00 0.00 0.00 85 1005.7
20260506070155 56 338 2.0 8.0 0.00 0.00 0.00 84 1005.3
20260506061024 58 76 3.0 8.0 0.00 0.00 0.00 81 1005.2
20260506044725 62 55 3.0 8.0 0.00 0.00 0.00 75 1005.2
20260506043720 62 347 4.0 9.0 0.00 0.00 0.00 75 1005.1
20260506042712 62 46 2.0 9.0 0.00 0.00 0.00 75 1005.0
20260506041700 62 40 3.0 7.0 0.00 0.00 0.00 75 1004.8
20260506040659 63 43 3.0 11.0 0.00 0.00 0.00 74 1004.8
20260506034529 64 19 4.0 11.0 0.00 0.00 0.00 72 1004.8
20260506033519 64 26 5.0 11.0 0.00 0.00 0.00 72 1004.6
20260506032510 64 46 4.0 11.0 0.00 0.00 0.00 73 1004.6
20260506031437 65 20 3.0 10.0 0.00 0.00 0.00 73 1004.5
20260506025317 67 103 2.0 6.0 0.00 0.00 0.00 73 1004.0
20260506024341 67 50 2.0 8.0 0.00 0.00 0.00 72 1003.9
20260506023405 68 61 2.0 8.0 0.00 0.00 0.00 72 1003.3
20260506022359 68 40 3.0 6.0 0.00 0.00 0.00 72 1003.3
20260506021349 69 22 2.0 10.0 0.00 0.00 0.00 71 1003.3
20260506020320 70 53 3.0 10.0 0.00 0.00 0.00 69 1003.0
20260506014149 74 5 1.0 5.0 0.00 0.00 0.00 68 1002.0
20260506013154 75 246 0.0 0.0 0.00 0.00 0.00 67 1001.4
20260506011044 75 254 0.0 0.0 0.00 0.00 0.00 65 1001.0
20260506010023 76 225 0.0 3.0 0.00 0.00 0.00 63 1000.7
20260506005034 76 225 0.0 2.0 0.00 0.00 0.00 62 1000.8
20260506004043 77 225 0.0 1.0 0.00 0.00 0.00 60 1000.8
20260506003029 78 225 0.0 3.0 0.00 0.00 0.00 61 1000.8